GW2005 Weather Reports


time (UTC)temp
C
wind
direction
speed
KPH
gust
KPH
rain 1hr
cm
rain 24hr
cm
rain mn
cm
humidity
%
barometer
mb
20260505051436 12 180 0.0 1.6 0.00 0.00 0.00 90 1011.5
20260505051204 12 180 1.6 1.6 0.00 0.00 0.00 89 1011.5
20260505050431 12 180 1.6 3.2 0.00 0.00 0.00 89 1011.4
20260505041427 13 180 0.0 0.0 0.00 0.00 0.00 85 1011.3
20260505040922 13 180 0.0 0.0 0.00 0.00 0.00 84 1011.3
20260505040650 13 180 0.0 1.6 0.00 0.00 0.00 83 1011.3
20260505035915 13 180 0.0 1.6 0.00 0.00 0.00 83 1011.3
20260505035417 13 197 0.0 3.2 0.00 0.00 0.00 81 1011.3
20260505034915 14 197 0.0 3.2 0.00 0.00 0.00 81 1011.4
20260505034416 14 208 0.0 3.2 0.00 0.00 0.00 80 1011.4
20260505033916 14 237 0.0 0.0 0.00 0.00 0.00 80 1011.5
20260505033416 14 237 0.0 0.0 0.00 0.00 0.00 80 1011.4
20260505033147 15 237 0.0 0.0 0.00 0.00 0.00 79 1011.4
20260505032416 15 237 0.0 0.0 0.00 0.00 0.00 78 1011.4
20260505031909 15 237 0.0 0.0 0.00 0.00 0.00 77 1011.4
20260505031410 15 237 0.0 0.0 0.00 0.00 0.00 77 1011.4
20260505030907 15 237 0.0 0.0 0.00 0.00 0.00 77 1011.6
20260505030407 15 237 0.0 0.0 0.00 0.00 0.00 76 1011.4
20260505025906 16 237 0.0 0.0 0.00 0.00 0.00 75 1011.5
20260505025404 16 237 0.0 3.2 0.00 0.00 0.00 74 1011.5
20260505024903 16 237 1.6 4.8 0.00 0.00 0.00 74 1011.6
20260505024404 16 239 1.6 4.8 0.00 0.00 0.00 74 1011.8
20260505023904 16 224 0.0 4.8 0.00 0.00 0.00 73 1011.8
20260505023403 16 238 0.0 0.0 0.00 0.00 0.00 73 1011.8
20260505022904 16 238 0.0 0.0 0.00 0.00 0.00 73 1011.8
20260505022402 16 238 0.0 0.0 0.00 0.00 0.00 72 1011.7
20260505021901 16 238 0.0 0.0 0.00 0.00 0.00 72 1011.6
20260505021401 17 238 0.0 0.0 0.00 0.00 0.00 71 1011.7
20260505020900 17 238 0.0 0.0 0.00 0.00 0.00 71 1011.6
20260505020400 17 238 0.0 3.2 0.00 0.00 0.00 71 1011.7
20260505015900 17 238 0.0 3.2 0.00 0.00 0.00 70 1011.7
20260505015359 17 238 0.0 1.6 0.00 0.00 0.00 70 1011.7
20260505014857 17 238 0.0 3.2 0.00 0.00 0.00 69 1011.7
20260505014358 17 238 0.0 4.8 0.00 0.00 0.00 69 1011.7
20260505013858 17 237 0.0 4.8 0.00 0.00 0.00 68 1011.6
20260505013356 17 249 1.6 4.8 0.00 0.00 0.00 68 1011.5
20260505012855 17 237 1.6 4.8 0.00 0.00 0.00 67 1011.4
20260505012355 18 227 1.6 4.8 0.00 0.00 0.00 67 1011.3
20260505011855 18 232 1.6 3.2 0.00 0.00 0.00 67 1011.3
20260505011354 18 230 0.0 3.2 0.00 0.00 0.00 66 1011.2
20260505010852 18 219 0.0 3.2 0.00 0.00 0.00 65 1011.2
20260505010648 18 240 0.0 3.2 0.00 0.00 0.00 65 1011.0
20260505010130 18 234 0.0 3.2 0.00 0.00 0.00 64 1011.0
20260505005350 18 234 0.0 3.2 0.00 0.00 0.00 63 1010.9
20260505004833 19 231 1.6 4.8 0.00 0.00 0.00 62 1010.9
20260505004351 19 238 3.2 8.0 0.00 0.00 0.00 61 1010.9
20260505004052 20 253 3.2 9.7 0.00 0.00 0.00 60 1010.9
20260505003320 20 243 4.8 9.7 0.00 0.00 0.00 60 1010.9
20260505002820 20 223 4.8 16.1 0.00 0.00 0.00 59 1010.8
20260505002328 20 243 4.8 16.1 0.00 0.00 0.00 59 1010.7
20260505001823 20 213 6.4 16.1 0.00 0.00 0.00 58 1010.7
20260505000839 20 237 11.3 27.4 0.00 0.00 0.00 56 1010.9
20260505000337 21 249 11.3 27.4 0.00 0.00 0.00 54 1010.9
20260504235819 21 227 8.0 27.4 0.00 0.00 0.00 53 1010.9
20260504235332 22 188 4.8 22.5 0.00 0.00 0.00 51 1011.0
20260504234844 22 242 3.2 11.3 0.00 0.00 0.00 48 1010.7
20260504234324 22 288 1.6 9.7 0.00 0.00 0.00 48 1010.6
20260504233822 22 223 1.6 6.4 0.00 0.00 0.00 48 1010.5
20260504233318 22 236 3.2 6.4 0.00 0.00 0.00 47 1010.5
20260504232852 22 210 4.8 11.3 0.00 0.00 0.00 46 1010.4
20260504232308 22 249 6.4 14.5 0.00 0.00 0.00 46 1010.4
20260504231802 23 230 6.4 14.5 0.00 0.00 0.00 46 1010.3
20260504231301 23 244 6.4 12.9 0.00 0.00 0.00 45 1010.2
20260504230753 23 227 6.4 11.3 0.00 0.00 0.00 45 1010.1
20260504230244 23 240 6.4 19.3 0.00 0.00 0.00 45 1010.2
20260504230015 23 242 6.4 19.3 0.00 0.00 0.00 46 1010.1
20260504225229 23 224 4.8 11.3 0.00 0.00 0.00 44 1010.2
20260504224722 23 232 4.8 12.9 0.00 0.00 0.00 45 1010.2
20260504224219 23 224 8.0 17.7 0.00 0.00 0.00 45 1010.2
20260504223720 23 242 9.7 22.5 0.00 0.00 0.00 44 1010.3
20260504223219 23 236 8.0 22.5 0.00 0.00 0.00 44 1010.3
20260504222720 23 215 8.0 19.3 0.00 0.00 0.00 44 1010.2
20260504222219 23 211 8.0 19.3 0.00 0.00 0.00 44 1010.2
20260504221719 23 183 6.4 19.3 0.00 0.00 0.00 43 1010.2
20260504221221 23 245 8.0 19.3 0.00 0.00 0.00 44 1010.1
20260504220220 23 247 8.0 25.7 0.00 0.00 0.00 43 1010.0
20260504215720 23 286 11.3 30.6 0.00 0.00 0.00 45 1010.2
20260504215220 23 208 12.9 30.6 0.00 0.00 0.00 44 1010.1
20260504214719 23 239 11.3 25.7 0.00 0.00 0.00 45 1010.2
20260504214220 23 228 8.0 25.7 0.00 0.00 0.00 44 1010.3
20260504213719 23 264 9.7 25.7 0.00 0.00 0.00 45 1010.1
20260504213212 23 236 8.0 22.5 0.00 0.00 0.00 44 1010.2
20260504212707 23 247 8.0 25.7 0.00 0.00 0.00 44 1010.3
20260504212203 24 271 8.0 25.7 0.00 0.00 0.00 44 1010.2
20260504211703 24 252 8.0 24.1 0.00 0.00 0.00 43 1010.2
20260504211206 24 260 8.0 24.1 0.00 0.00 0.00 42 1010.2
20260504210934 24 234 6.4 19.3 0.00 0.00 0.00 42 1010.1
20260504210203 24 295 8.0 19.3 0.00 0.00 0.00 41 1010.0
20260504205703 24 139 8.0 19.3 0.00 0.00 0.00 41 1010.0
20260504205203 24 229 9.7 25.7 0.00 0.00 0.00 41 1010.0
20260504204703 24 224 9.7 25.7 0.00 0.00 0.00 42 1010.0
20260504204203 24 159 11.3 27.4 0.00 0.00 0.00 43 1010.1
20260504203703 23 144 12.9 27.4 0.00 0.00 0.00 44 1010.2
20260504203204 23 231 9.7 25.7 0.00 0.00 0.00 42 1010.3
20260504202705 23 213 11.3 27.4 0.00 0.00 0.00 43 1010.3
20260504202435 23 216 12.9 27.4 0.00 0.00 0.00 45 1010.5
20260504201658 23 199 11.3 24.1 0.00 0.00 0.00 42 1010.6
20260504201153 23 249 8.0 24.1 0.00 0.00 0.00 43 1010.5
20260504200654 24 240 8.0 25.7 0.00 0.00 0.00 42 1010.6
20260504200424 24 265 9.7 25.7 0.00 0.00 0.00 43 1010.6
20260504195654 23 211 9.7 25.7 0.00 0.00 0.00 42 1010.6
20260504195159 23 258 11.3 25.7 0.00 0.00 0.00 40 1010.7
20260504194658 23 249 11.3 22.5 0.00 0.00 0.00 41 1010.8
20260504194158 23 213 11.3 22.5 0.00 0.00 0.00 43 1010.8
20260504193653 23 227 9.7 22.5 0.00 0.00 0.00 42 1010.9
20260504193200 23 252 6.4 22.5 0.00 0.00 0.00 40 1010.9
20260504192653 23 285 6.4 19.3 0.00 0.00 0.00 42 1010.9
20260504192153 23 259 8.0 19.3 0.00 0.00 0.00 45 1011.0
20260504191653 23 276 8.0 22.5 0.00 0.00 0.00 43 1011.1
20260504191153 23 259 9.7 24.1 0.00 0.00 0.00 42 1011.1
20260504190917 23 234 11.3 24.1 0.00 0.00 0.00 42 1011.3
20260504190137 24 233 8.0 25.7 0.00 0.00 0.00 40 1011.3
20260504185630 24 211 8.0 25.7 0.00 0.00 0.00 43 1011.2
20260504185129 23 193 8.0 22.5 0.00 0.00 0.00 41 1011.2
20260504184629 23 178 8.0 22.5 0.00 0.00 0.00 41 1011.3
20260504184400 23 207 11.3 25.7 0.00 0.00 0.00 41 1011.3
20260504183630 23 231 12.9 27.4 0.00 0.00 0.00 40 1011.5
20260504183129 23 277 9.7 27.4 0.00 0.00 0.00 41 1011.5
20260504182629 23 194 8.0 20.9 0.00 0.00 0.00 39 1011.4
20260504182127 23 223 8.0 24.1 0.00 0.00 0.00 39 1011.5
20260504181625 23 272 8.0 24.1 0.00 0.00 0.00 38 1011.6
20260504181124 23 245 8.0 25.7 0.00 0.00 0.00 40 1011.8
20260504180854 23 290 9.7 25.7 0.00 0.00 0.00 40 1011.8
20260504180124 23 202 9.7 27.4 0.00 0.00 0.00 40 1012.0
20260504175623 23 228 6.4 27.4 0.00 0.00 0.00 40 1012.0
20260504175123 23 281 6.4 17.7 0.00 0.00 0.00 39 1012.1
20260504174615 23 304 9.7 22.5 0.00 0.00 0.00 42 1012.2
20260504174115 23 227 9.7 27.4 0.00 0.00 0.00 39 1012.3
20260504173615 23 227 8.0 27.4 0.00 0.00 0.00 39 1012.3
20260504173115 23 199 8.0 24.1 0.00 0.00 0.00 38 1012.3
20260504172615 23 142 8.0 24.1 0.00 0.00 0.00 39 1012.4
20260504172346 23 238 8.0 25.7 0.00 0.00 0.00 40 1012.5
20260504171615 23 229 8.0 25.7 0.00 0.00 0.00 42 1012.7
20260504171116 22 218 8.0 22.5 0.00 0.00 0.00 44 1012.8
20260504170846 22 236 6.4 20.9 0.00 0.00 0.00 39 1012.8
20260504170346 22 257 6.4 19.3 0.00 0.00 0.00 42 1012.8
20260504160337 20 221 8.0 24.1 0.00 0.00 0.00 43 1013.7
20260504150606 20 300 6.4 17.7 0.00 0.00 0.00 45 1014.2
20260504150105 20 218 4.8 17.7 0.00 0.00 0.00 46 1014.2
20260504141053 17 223 6.4 22.5 0.00 0.00 0.00 50 1014.2
20260504140552 17 204 4.8 20.9 0.00 0.00 0.00 49 1014.3
20260504140323 17 223 6.4 17.7 0.00 0.00 0.00 56 1014.3
20260504130446 13 190 1.6 8.0 0.00 0.00 0.00 66 1015.0
20260504110304 5 190 0.0 0.0 0.00 0.00 0.00 93 1015.5
20260504100130 6 190 0.0 0.0 0.00 0.00 0.00 89 1015.2
20260504081348 7 190 0.0 1.6 0.00 0.00 0.00 87 1015.4
20260504081113 7 190 0.0 0.0 0.00 0.00 0.00 87 1015.5
20260504080332 7 190 0.0 0.0 0.00 0.00 0.00 87 1015.4